Location: Freistadt
(48.5112°N, 14.5013°E)
Time: 09:10:39
(UTC+02:00)

NOAA 16 DEB - Pass Details

Date: 04 June 2024
Orbit: 738 x 809 km, 99.0° (Epoch: 20 June)

Event Time Altitude Azimuth Distance (km) Brightness Sun altitude
Rises 03:40:20 0° 145° (SE) 3,310 ? -10.5°
Reaches altitude 10° 03:42:44 10° 140° (SE) 2,377 ? -10.3°
Maximum altitude 03:47:46 48° 67° (ENE) 1,032 ? -9.8°
Drops below altitude 10° 03:52:45 10° 355° (N) 2,354 ? -9.2°
Sets 03:55:07 0° 350° (N) 3,275 ? -9.0°
